Weather History for KBLF - December, 2013

Change the Weather History Date:

Tuesday, December 3, 2013

  Actual Average Record
Temperature  
Mean Temperature 50 °F 41 °F  
Max Temperature 57 °F 48 °F 71 °F (1982)
Min Temperature 43 °F 33 °F 11 °F (1966)
Degree Days  
Heating Degree Days 15 24  
Month to date heating degree days 57 72  
Since 1 July heating degree days 1009 975  
Cooling Degree Days 0 0  
Month to date cooling degree days 0 0  
Year to date cooling degree days 938 853  
Moisture  
Dew Point 38 °F    
Average Humidity 61    
Maximum Humidity 71    
Minimum Humidity 51    
Precipitation  
Precipitation 0.00 in 0.10 in 0.71 in (1983)
Month to date precipitation 0.00 0.29  
Year to date precipitation 37.01 37.01  
Snow  
Snow 0.00 in - - ()
Month to date snowfall 0.0  
Since 1 July snowfall 3.6  
Snow Depth 0.00 in    
Sea Level Pressure  
Sea Level Pressure 29.86 in    
Wind  
Wind Speed 4 mph (SSW)    
Max Wind Speed 16 mph    
Max Gust Speed 24 mph    
Visibility 10 miles    
Events      
T = Trace of Precipitation, MM = Missing Value Source: NWS Daily Summary

Daily Weather History Graph

Daily Weather History Graph

Search for Another Location

Airport or City:

Trip Planner

Search our weather history database for the weather conditions in past years. The results will help you decide how hot, cold, wet, or windy it might be!

Date:

Astronomy

Dec. 03, 2013 Rise Set
Actual Time 7:22 AM EST 5:07 PM EST
Civil Twilight 6:53 AM EST 5:35 PM EST
Nautical Twilight 6:21 AM EST 6:08 PM EST
Astronomical Twilight 5:49 AM EST 6:39 PM EST
Moon 7:50 AM EST (12/3) 6:08 PM EST (12/3)
Length of Visible Light 10h 42m
Length of Day
9h 44m
New Moon, 1% of the Moon is Illuminated
Dec 3
New Moon
Dec 9
First Quarter
Dec 17
Full
Dec 25
Last Quarter
Jan 1
New

Hourly Weather History & Observations

Time (EST) Temp. Windchill Dew Point Humidity Pressure Visibility Wind Dir Wind Speed Gust Speed Precip Events Conditions
12:52 AM 46.0 °F 44.8 °F 33.1 °F 61% 29.82 in 10.0 mi SSW 3.5 mph - N/A   Overcast
1:52 AM 46.0 °F - 33.1 °F 61% 29.81 in 10.0 mi Calm Calm - N/A   Partly Cloudy
2:52 AM 46.0 °F - 33.1 °F 61% 29.80 in 10.0 mi Calm Calm - N/A   Mostly Cloudy
3:52 AM 44.1 °F 42.5 °F 33.1 °F 65% 29.81 in 10.0 mi SSW 3.5 mph - N/A   Mostly Cloudy
4:52 AM 46.0 °F 43.9 °F 33.1 °F 61% 29.82 in 10.0 mi West 4.6 mph - N/A   Overcast
5:01 AM 44.6 °F 42.2 °F 33.8 °F 66% 29.85 in 10.0 mi WSW 4.6 mph - N/A   Overcast
5:52 AM 46.0 °F 44.8 °F 34.0 °F 63% 29.84 in 10.0 mi West 3.5 mph - N/A   Overcast
6:01 AM 46.4 °F 44.3 °F 33.8 °F 62% 29.86 in 10.0 mi West 4.6 mph - N/A   Overcast
6:47 AM 44.6 °F 43.1 °F 35.6 °F 71% 29.86 in 10.0 mi SW 3.5 mph - N/A   Mostly Cloudy
6:52 AM 45.0 °F - 35.1 °F 68% 29.85 in 10.0 mi Calm Calm - N/A   Mostly Cloudy
7:12 AM 46.4 °F 43.5 °F 37.4 °F 71% 29.87 in 10.0 mi SW 5.8 mph - N/A   Overcast
7:52 AM 46.0 °F - 37.9 °F 73% 29.86 in 10.0 mi Calm Calm - N/A   Overcast
8:09 AM 46.4 °F - 37.4 °F 71% 29.87 in 10.0 mi Calm Calm - N/A   Overcast
8:52 AM 46.0 °F - 36.0 °F 68% 29.86 in 10.0 mi Calm Calm - N/A   Scattered Clouds
9:19 AM 50.0 °F - 37.4 °F 62% 29.89 in 10.0 mi SSE 3.5 mph - N/A   Mostly Cloudy
9:29 AM 50.0 °F - 37.4 °F 62% 29.89 in 10.0 mi Calm Calm - N/A   Mostly Cloudy
9:52 AM 50.0 °F - 37.0 °F 61% 29.88 in 10.0 mi Calm Calm - N/A   Mostly Cloudy
10:02 AM 53.6 °F - 37.4 °F 54% 29.91 in 10.0 mi Calm Calm - N/A   Mostly Cloudy
10:52 AM 52.0 °F - 39.0 °F 61% 29.88 in 10.0 mi Calm Calm - N/A   Overcast
11:20 AM 53.6 °F - 39.2 °F 58% 29.91 in 10.0 mi Variable 3.5 mph - N/A   Overcast
11:52 AM 53.1 °F - 39.0 °F 59% 29.88 in 10.0 mi Variable 4.6 mph - N/A   Overcast
12:36 PM 53.6 °F - 39.2 °F 58% 29.88 in 10.0 mi Variable 5.8 mph - N/A   Overcast
12:52 PM 54.0 °F - 39.9 °F 59% 29.87 in 10.0 mi West 5.8 mph - N/A   Overcast
1:17 PM 53.6 °F - 39.2 °F 58% 29.90 in 10.0 mi WSW 5.8 mph - N/A   Overcast
1:52 PM 55.0 °F - 39.9 °F 57% 29.86 in 10.0 mi West 4.6 mph - N/A   Overcast
2:52 PM 55.9 °F - 39.9 °F 55% 29.85 in 10.0 mi West 4.6 mph - N/A   Mostly Cloudy
3:52 PM 57.0 °F - 39.9 °F 53% 29.85 in 10.0 mi Calm Calm - N/A   Partly Cloudy
4:52 PM 55.0 °F - 39.9 °F 57% 29.86 in 10.0 mi Calm Calm - N/A   Mostly Cloudy
5:52 PM 53.1 °F - 39.9 °F 61% 29.87 in 10.0 mi SSE 4.6 mph - N/A   Partly Cloudy
6:52 PM 53.1 °F - 39.9 °F 61% 29.88 in 10.0 mi SE 6.9 mph - N/A   Clear
7:52 PM 52.0 °F - 39.9 °F 63% 29.87 in 10.0 mi SSE 5.8 mph - N/A   Clear
8:52 PM 51.1 °F - 41.0 °F 68% 29.86 in 10.0 mi SSE 9.2 mph 21.9 mph N/A   Clear
9:52 PM 51.1 °F - 42.1 °F 71% 29.88 in 10.0 mi South 6.9 mph 17.3 mph N/A   Partly Cloudy
10:52 PM 52.0 °F - 43.0 °F 71% 29.88 in 10.0 mi South 11.5 mph 18.4 mph N/A   Overcast
11:52 PM 51.1 °F - 43.0 °F 74% 29.88 in 10.0 mi SSE 5.8 mph - N/A   Scattered Clouds